Location: Melque
(41.0517°N, 4.4694°W)
Time: 13:01:31
(UTC+00:00)

SKYMED 2 - Pass Details

Date: 16 March 2026
Orbit: 622 x 624 km, 97.9° (Epoch: 14 April)

Event Time Altitude Azimuth Distance (km) Brightness Sun altitude
Rises 19:51:56 0° 350° (N) 2,911 7.3 -17.0°
Reaches altitude 10° 19:55:38 10° 317° (NW) 1,998 7.0 -17.6°
Maximum altitude 19:57:00 11° 298° (WNW) 1,906 7.2 -17.9°
Drops below altitude 10° 19:58:22 10° 280° (W) 1,993 7.4 -18.1°
Sets 20:02:03 0° 246° (WSW) 2,893 7.8 -18.8°
